Погода в Паралимни

Кипр     35°02′20″N   33°58′57″E
темп.,
°C
ветер,
м/с
пор.,
м/с
влажн.,
%
обл.,
%
осадки,
мм/ч
давл.,
гПа
погр.,
м
13 мая, чт
чт1300:00+21ююз22750 0.0 1010107
03:00+21с22730 0.0 1009149
06:00+21св3373100 0.0 1010245
09:00+22юв22703 0.0 1012357
12:00+22ю43700 0.0 1012492
15:00+22ю54650 0.0 1012377
18:00+22ююз55650 0.0 1012316
21:00+21юз44720 0.0 1013204
14 мая, пт
пт1400:00+21сз11710 0.0 101392
03:00+21св12720 0.0 101299
06:00+21св11720 0.0 1013131
09:00+22юв32690 0.0 1014336
12:00+22ююв43660 0.0 1015408
15:00+23ююв44661 0.0 1014435
18:00+23ю33671 0.0 1013264
21:00+22ююз33730 0.0 1013158
15 мая, сб
сб1500:00+21юв11740 0.0 1013127
03:00+21св23740 0.0 1012206
06:00+21всв23760 0.0 1012304
09:00+21юв22710 0.0 1012373
12:00+22ююв43690 0.0 1013435
15:00+23ю43671 0.0 1011461
18:00+22юз66680 0.0 1010295
21:00+22ююз2276100 0.0 1010119
16 мая, вс
вс1600:00+22св22720 0.0 100967
03:00+21в33760 0.0 1008181
06:00+21св227525 0.0 1009248
09:00+22всв336966 0.0 1009371
12:00+22ююв3267100 0.0 1009460
15:00+23ююз545796 0.0 1008473
18:00+23ююз5665100 0.0 1007353
21:00+22ю467397 0.0 1007357
17 мая, пн
пн1700:00+21ссз12725 0.0 1006178
03:00+21с557117 0.0 1006433
06:00+21ссз33720 0.0 1006232
09:00+22с22610 0.0 1007567
12:00+23в33620 0.0 1008563
15:00+23ю536419 0.0 1008643
18:00+22юз66660 0.0 1008320
21:00+22юз55750 0.0 1009224